Chippewa, MI

11:02 AM EST on December 15, 2017 (GMT -0500)
Chippewa County International

Weather History for KCIU - March, 2013

Change the Weather History Date:

Monday, March 18, 2013

  Actual Average Record
Temperature  
Mean Temperature 19 °F -  
Max Temperature 30 °F 33 °F 77 °F (2012)
Min Temperature 8 °F 9 °F -16 °F (1993)
Degree Days  
Heating Degree Days 46    
Moisture  
Dew Point 15 °F    
Average Humidity 82    
Maximum Humidity 100    
Minimum Humidity 64    
Precipitation  
Precipitation 0.00 in - - ()
Sea Level Pressure  
Sea Level Pressure 29.89 in    
Wind  
Wind Speed 14 mph (East)    
Max Wind Speed 30 mph    
Max Gust Speed 38 mph    
Visibility 8 miles    
Events      
Averages and records for this station are not official NWS values.
T = Trace of Precipitation, MM = Missing Value Source: NWS Daily Summary

Daily Weather History Graph

Daily Weather History Graph

Search for Another Location

Airport or City:

Trip Planner

Search our weather history database for the weather conditions in past years. The results will help you decide how hot, cold, wet, or windy it might be!

Date:

Astronomy

Mar. 18, 2013 Rise Set
Actual Time 7:44 AM EDT 7:48 PM EDT
Civil Twilight 7:14 AM EDT 8:18 PM EDT
Nautical Twilight 6:39 AM EDT 8:53 PM EDT
Astronomical Twilight 6:03 AM EDT 9:29 PM EDT
Moon 11:24 AM EDT (3/18) 2:05 AM EDT (3/18)
Length of Visible Light 13h 03m
Length of Day
12h 03m
Waxing Crescent, 40% of the Moon is Illuminated
Mar 18
Waxing Crescent
Mar 19
First Quarter
Mar 27
Full
Apr 3
Last Quarter
Apr 10
New

Hourly Weather History & Observations

Time (EDT) Temp. Windchill Dew Point Humidity Pressure Visibility Wind Dir Wind Speed Gust Speed Precip Events Conditions
12:15 AM 12.2 °F -0.2 °F 6.8 °F 79% 30.21 in 10.0 mi East 9.2 mph - N/A   Clear
12:35 AM 12.2 °F -1.8 °F 6.8 °F 79% 30.20 in 10.0 mi East 11.5 mph - N/A   Clear
12:55 AM 12.2 °F -2.5 °F 6.8 °F 79% 30.20 in 10.0 mi East 12.7 mph - N/A   Clear
1:15 AM 12.2 °F 0.7 °F 5.0 °F 73% 30.20 in 10.0 mi ESE 8.1 mph - N/A   Clear
1:35 AM 10.4 °F -0.4 °F 5.0 °F 79% 30.20 in 10.0 mi ESE 6.9 mph - N/A   Scattered Clouds
1:55 AM 10.4 °F -1.5 °F 5.0 °F 79% 30.19 in 10.0 mi SE 8.1 mph - N/A   Mostly Cloudy
2:15 AM 10.4 °F -0.4 °F 5.0 °F 79% 30.19 in 10.0 mi ESE 6.9 mph - N/A   Partly Cloudy
2:35 AM 10.4 °F 0.8 °F 5.0 °F 79% 30.19 in 10.0 mi ESE 5.8 mph - N/A   Clear
2:55 AM 8.6 °F -2.6 °F 5.0 °F 85% 30.19 in 10.0 mi ESE 6.9 mph - N/A   Clear
3:15 AM 8.6 °F -1.3 °F 5.0 °F 85% 30.18 in 10.0 mi ESE 5.8 mph - N/A   Clear
3:35 AM 8.6 °F 0.1 °F 3.2 °F 79% 30.17 in 10.0 mi SE 4.6 mph - N/A   Clear
3:55 AM 8.6 °F -1.3 °F 3.2 °F 79% 30.17 in 10.0 mi ESE 5.8 mph - N/A   Clear
4:15 AM 8.6 °F -2.6 °F 5.0 °F 85% 30.15 in 10.0 mi East 6.9 mph - N/A   Clear
4:35 AM 8.6 °F -2.6 °F 5.0 °F 85% 30.15 in 10.0 mi East 6.9 mph - N/A   Clear
4:55 AM 8.6 °F -4.7 °F 5.0 °F 85% 30.13 in 10.0 mi East 9.2 mph - N/A   Clear
5:15 AM 8.6 °F -6.3 °F 5.0 °F 85% 30.12 in 10.0 mi East 11.5 mph - N/A   Clear
5:35 AM 8.6 °F -6.3 °F 5.0 °F 85% 30.11 in 10.0 mi East 11.5 mph - N/A   Clear
5:55 AM 8.6 °F -5.5 °F 3.2 °F 79% 30.11 in 10.0 mi East 10.4 mph - N/A   Clear
6:15 AM 8.6 °F -4.7 °F 3.2 °F 79% 30.11 in 10.0 mi East 9.2 mph - N/A   Clear
6:35 AM 8.6 °F -5.5 °F 3.2 °F 79% 30.11 in 10.0 mi East 10.4 mph - N/A   Clear
6:55 AM 8.6 °F -5.5 °F 3.2 °F 79% 30.10 in 10.0 mi East 10.4 mph - N/A   Clear
7:15 AM 8.6 °F -7.7 °F 3.2 °F 79% 30.09 in 10.0 mi East 13.8 mph - N/A   Clear
7:35 AM 8.6 °F -7.0 °F 5.0 °F 85% 30.08 in 10.0 mi East 12.7 mph - N/A   Scattered Clouds
7:55 AM 8.6 °F -7.7 °F 6.8 °F 92% 30.07 in 10.0 mi East 13.8 mph - N/A   Mostly Cloudy
8:15 AM 10.4 °F -6.6 °F 8.6 °F 92% 30.06 in 10.0 mi East 16.1 mph 20.7 mph N/A   Overcast
8:35 AM 12.2 °F -3.1 °F 10.4 °F 92% 30.05 in 10.0 mi East 13.8 mph 18.4 mph N/A   Overcast
8:55 AM 14.0 °F -2.0 °F 12.2 °F 93% 30.04 in 10.0 mi East 16.1 mph - N/A   Overcast
9:15 AM 15.8 °F 2.1 °F 12.2 °F 86% 30.04 in 10.0 mi East 12.7 mph 19.6 mph N/A   Overcast
9:35 AM 17.6 °F 2.7 °F 14.0 °F 86% 30.03 in 10.0 mi East 16.1 mph 21.9 mph N/A   Overcast
9:55 AM 19.4 °F 4.1 °F 14.0 °F 80% 30.00 in 10.0 mi East 18.4 mph 27.6 mph N/A   Scattered Clouds
10:15 AM 19.4 °F 3.2 °F 15.8 °F 86% 29.99 in 10.0 mi East 20.7 mph 28.8 mph N/A   Partly Cloudy
10:35 AM 21.2 °F 6.4 °F 15.8 °F 80% 29.99 in 10.0 mi ESE 18.4 mph 28.8 mph N/A   Scattered Clouds
10:55 AM 21.2 °F 6.4 °F 17.6 °F 86% 29.98 in 10.0 mi East 18.4 mph 24.2 mph N/A   Scattered Clouds
11:15 AM 23.0 °F 9.2 °F 17.6 °F 80% 29.96 in 10.0 mi East 17.3 mph - N/A   Partly Cloudy
11:35 AM 24.8 °F 9.6 °F 17.6 °F 74% 29.94 in 9.0 mi East 23.0 mph 31.1 mph N/A   Clear
11:55 AM 24.8 °F 11.1 °F 17.6 °F 74% 29.92 in 10.0 mi East 18.4 mph 32.2 mph N/A   Clear
12:15 PM 26.6 °F 12.0 °F 19.4 °F 74% 29.91 in 10.0 mi East 23.0 mph 27.6 mph N/A   Clear
12:35 PM 26.6 °F 12.0 °F 17.6 °F 69% 29.91 in 10.0 mi ESE 23.0 mph 29.9 mph N/A   Clear
12:55 PM 26.6 °F 12.7 °F 19.4 °F 74% 29.89 in 10.0 mi ESE 20.7 mph 29.9 mph N/A   Clear
1:15 PM 26.6 °F 11.1 °F 19.4 °F 74% 29.86 in 10.0 mi East 26.5 mph 32.2 mph N/A   Clear
1:35 PM 26.6 °F 12.7 °F 19.4 °F 74% 29.83 in 10.0 mi East 20.7 mph 33.4 mph N/A   Clear
1:55 PM 28.4 °F 14.4 °F 19.4 °F 69% 29.82 in 10.0 mi East 23.0 mph 32.2 mph N/A   Clear
2:15 PM 28.4 °F 13.8 °F 19.4 °F 69% 29.79 in 10.0 mi East 25.3 mph 29.9 mph N/A   Clear
2:35 PM 30.2 °F 17.1 °F 19.4 °F 64% 29.78 in 10.0 mi ESE 21.9 mph 34.5 mph N/A   Clear
2:55 PM 28.4 °F 13.5 °F 19.4 °F 69% 29.78 in 10.0 mi East 26.5 mph 36.8 mph N/A   Clear
3:15 PM 28.4 °F 13.3 °F 19.4 °F 69% 29.76 in 10.0 mi East 27.6 mph 38.0 mph N/A   Clear
3:35 PM 28.4 °F 13.5 °F 21.2 °F 74% 29.74 in 10.0 mi East 26.5 mph 29.9 mph N/A   Clear
3:55 PM 30.2 °F 15.7 °F 21.2 °F 69% 29.72 in 10.0 mi East 27.6 mph 34.5 mph N/A   Clear
4:15 PM 30.2 °F 15.7 °F 21.2 °F 69% 29.70 in 10.0 mi East 27.6 mph 38.0 mph N/A   Partly Cloudy
4:35 PM 30.2 °F 16.5 °F 23.0 °F 75% 29.69 in 10.0 mi East 24.2 mph 29.9 mph N/A   Mostly Cloudy
4:55 PM 30.2 °F 16.2 °F 23.0 °F 75% 29.67 in 10.0 mi East 25.3 mph 35.7 mph N/A   Overcast
5:15 PM 30.2 °F 15.2 °F 21.2 °F 69% 29.67 in 10.0 mi ESE 29.9 mph 36.8 mph N/A   Overcast
5:35 PM 30.2 °F 15.9 °F 21.2 °F 69% 29.66 in 10.0 mi ESE 26.5 mph 33.4 mph N/A   Overcast
5:55 PM 28.4 °F 14.4 °F 21.2 °F 74% 29.66 in 10.0 mi East 23.0 mph 34.5 mph N/A   Overcast
6:15 PM 28.4 °F 14.1 °F 21.2 °F 74% 29.64 in 10.0 mi East 24.2 mph 33.4 mph N/A   Overcast
6:35 PM 28.4 °F 14.4 °F 21.2 °F 74% 29.64 in 10.0 mi ESE 23.0 mph 29.9 mph N/A   Overcast
6:55 PM 28.4 °F 15.1 °F 23.0 °F 80% 29.63 in 1.5 mi ESE 20.7 mph 27.6 mph N/A   Overcast
7:15 PM 26.6 °F 13.4 °F 24.8 °F 93% 29.63 in 0.5 mi East 18.4 mph 24.2 mph N/A   Overcast
7:35 PM 26.6 °F 14.3 °F 26.6 °F 100% 29.62 in 0.2 mi ESE 16.1 mph - N/A   Overcast
7:55 PM 26.6 °F 13.8 °F 24.8 °F 93% 29.61 in 0.2 mi East 17.3 mph 21.9 mph N/A   Overcast
8:35 PM 28.4 °F 14.1 °F 26.6 °F 93% 29.59 in 0.8 mi ESE 24.2 mph 28.8 mph N/A   Overcast
8:55 PM 28.4 °F 14.4 °F 28.4 °F 100% 29.58 in 1.0 mi East 23.0 mph 28.8 mph N/A   Overcast
9:15 PM 28.4 °F 15.4 °F 26.6 °F 93% 29.57 in 1.2 mi East 19.6 mph 27.6 mph N/A   Overcast
9:35 PM 26.6 °F 12.7 °F 26.6 °F 100% 29.56 in 1.2 mi ESE 20.7 mph 26.5 mph N/A   Overcast
9:55 PM 26.6 °F 13.8 °F 26.6 °F 100% 29.55 in 1.0 mi East 17.3 mph 26.5 mph N/A   Overcast
10:15 PM 26.6 °F 13.8 °F 26.6 °F 100% 29.54 in 2.5 mi East 17.3 mph 21.9 mph N/A   Overcast
10:35 PM 26.6 °F 14.7 °F 24.8 °F 93% 29.53 in 3.0 mi East 15.0 mph 21.9 mph N/A   Overcast
10:55 PM 26.6 °F 13.4 °F 24.8 °F 93% 29.52 in 1.5 mi East 18.4 mph 25.3 mph N/A   Overcast
11:15 PM 26.6 °F 14.7 °F 24.8 °F 93% 29.52 in 1.2 mi East 15.0 mph - N/A   Overcast
11:35 PM 26.6 °F 14.7 °F 24.8 °F 93% 29.51 in 1.5 mi East 15.0 mph 23.0 mph N/A   Overcast
11:55 PM 26.6 °F 14.3 °F 26.6 °F 100% 29.50 in 2.5 mi East 16.1 mph - N/A   Overcast